Regional Weather Roundup
Issued by NWS

Home | Current Version | Previous Version | Graphics & Text | Print | Product List | Glossary On
Versions: 1 2 3 4 5 6 7 8 9 10 11 12 13 14 15 16 17 18 19 20 21 22 23 24 25 26 27 28 29 30 31 32 33 34 35 36 37 38 39 40 41 42 43 44 45 46 47 48 49 50
000
ASUS43 KLOT 170506
RWRIL

ILLINOIS REGIONAL WEATHER ROUNDUP
NATIONAL WEATHER SERVICE CHICAGO/ROMEOVILLE IL
1200 AM CDT THU APR 17 2014

NOTE: "FAIR" INDICATES FEW OR NO CLOUDS BELOW 12,000 FEET WITH NO
SIGNIFICANT WEATHER AND/OR OBSTRUCTIONS TO VISIBILITY.

* THESE STATIONS ARE NOT UNDER NWS QUALITY CONTROL. THEY ALSO MAY NOT
  REPORT WEATHER SUCH AS PRECIPITATION OR FOG.

ILZ001-002-007-009-015-016-024-170600-
NORTHWEST ILLINOIS

CITY           SKY/WX    TMP DP  RH WIND       PRES   REMARKS
MOLINE         CLOUDY    47  28  47 S15G22    30.01S
STERLING*      CLOUDY    46  28  49 SE14G20   30.06S
SAVANNA*       CLOUDY    47  29  50 SE17      30.03S
$$

ILZ003-004-008-010-011-017-018-170600-
NORTH CENTRAL ILLINOIS

CITY           SKY/WX    TMP DP  RH WIND       PRES   REMARKS
ROCKFORD       CLOUDY    42  29  59 SE13      30.11F
FREEPORT*      CLOUDY    46  32  57 SE22G28   30.06F
ROCHELLE*      MOCLDY    41  31  67 SE14      30.10S
DE KALB*       CLOUDY    40  28  61 SE17      30.12F
$$

ILZ005-006-012>014-019>023-170600-
NORTHEAST ILLINOIS

CITY           SKY/WX    TMP DP  RH WIND       PRES   REMARKS
CHICAGO-OHARE  CLOUDY    44  23  43 S15       30.16S
CHICAGO-MIDWAY MOCLDY    45  24  43 S15       30.18R
AURORA         MOCLDY    42  27  55 SE13      30.14F
LANSING*       MOCLDY    42  24  49 S12G20    30.19S
WAUKEGAN       CLOUDY    41  30  65 SE13      30.15F
DUPAGE AIRPORT MOCLDY    43  26  51 S15       30.14F
KANKAKEE*      PTCLDY    40  28  61 SE7       30.19S
WHEELING       MOCLDY    45  24  43 S13       30.17S
MORRIS*        PTCLDY    43  25  49 SE14      30.14F
NORTHERLY ISL    N/A     45  25  45 SE16        N/A
$$

LMZ740>746-170600-
SOUTHERN LAKE MICHIGAN

STATION/POSITION SKY/WX   TEMP    WIND        PRES    VSBY  WAVE
                          AIR SEA DIR/SP/G                  HT/PER
                          (F)     (DEG/KT/KT) (MB)    (MI)  (FT/S)
WAUKEGAN HARBOR            40     140/ 16/ 17 1022.7F
HARRISON CRIB              44     160/ 19/ 24   N/A
BURNHAM HARBOR             44     160/ 17/ 21   N/A
CALUMET HARBOR             44     150/ 12/ 20 1022.8R
MICHIGAN CITY              44     130/ 14/ 22   N/A
$$

ILZ025>027-034>036-040-047-049-050-058-095>099-170600-
WEST-CENTRAL ILLINOIS

CITY           SKY/WX    TMP DP  RH WIND       PRES   REMARKS
QUINCY         PTCLDY    48  26  42 S13       30.04R
GALESBURG*     CLOUDY    46  32  58 SE12G18   30.04S
MACOMB*        CLOUDY    46  29  52 SE14G20   30.07S
JACKSONVILLE*  PTCLDY    47  28  47 S14G20    30.10S
PITTSFIELD*    PTCLDY    48  28  45 S13       30.08S
$$

ILZ028>032-037-038-041>044-048-051>054-059>061-170600-
CENTRAL ILLINOIS

CITY           SKY/WX    TMP DP  RH WIND       PRES   REMARKS
PONTIAC        PTCLDY    41  30  65 SE10      30.15F
BLOOMINGTON    PTCLDY    38  28  67 S15       30.15S WCI  29
DECATUR        CLEAR     41  30  65 SE8       30.16S
PEORIA         CLOUDY    48  28  46 S17G25    30.10S
LACON*         CLOUDY    44  31  58 S13G20    30.09S
LINCOLN*       PTCLDY    40  32  72 SE7       30.14S
SPRINGFIELD    PTCLDY    46  30  53 S14       30.12F
TAYLORVILLE    CLEAR     41  32  70 S10       30.15S
$$

ILZ033-039-045-046-055>057-062-063-170600-
EAST-CENTRAL ILLINOIS

CITY           SKY/WX    TMP DP  RH WIND       PRES   REMARKS
CHAMPAIGN      PTCLDY    38  28  67 SE8       30.17R WCI  32
RANTOUL*       PTCLDY    41  28  60 CALM      30.19R
MATTOON        PTCLDY    44  27  51 S7        30.16R
PARIS*         CLEAR     40  30  68 SE6       30.19R
$$

ILZ079-100>102-170600-
SOUTHWEST ILLINOIS

CITY           SKY/WX    TMP DP  RH WIND       PRES   REMARKS
ALTON          CLEAR     45  28  53 S9        30.15S
BELLEVILLE     CLEAR     40  33  77 SE5       30.16S
CAHOKIA*       CLEAR     45  31  58 S5        30.15S
SPARTA*        CLEAR     41  32  70 CALM      30.18R
$$

ILZ064>066-069>071-074>076-080>082-084>086-088>090-092>094-170600-
SOUTH-CENTRAL ILLINOIS

CITY           SKY/WX    TMP DP  RH WIND       PRES   REMARKS
CARBONDALE     CLEAR     45  30  55 SE6       30.17R
CAIRO*         CLEAR     44  38  80 CALM      30.17S
MARION         CLEAR     46  30  53 SE5       30.16S
MT. VERNON     CLEAR     45  25  45 CALM      30.18R
CENTRALIA*       N/A     43  30  59 S5        30.18R
SALEM*         CLEAR     45  32  60 CALM      30.18R
METROPOLIS*    PTCLDY    43  32  65 CALM      30.17R
$$

ILZ067-068-072-073-078-083-087-091-170600-
SOUTHEAST ILLINOIS

CITY           SKY/WX    TMP DP  RH WIND       PRES   REMARKS
FAIRFIELD*     CLEAR     46  34  61 SE6       30.17S
HARRISBURG*    PTCLDY    44  33  65 SE6       30.19S
ROBINSON*      CLEAR     44  30  59 SE6       30.20R
CARMI*         PTCLDY    45  37  74 SE3       30.18R
$$

ABBREVIATIONS USED IN REMARKS
   TC - TEMPERATURE IN CELSIUS
  WCI - WIND CHILL INDEX
   HX - HEAT INDEX
  VSB - VISIBILITY
$$




USA.gov is the U.S. government's official web portal to all federal, state and local government web resources and services.